STARLINK-32819 (62995 NORAD) Tracking and Keplerian Element Data

This shows tracking and keplerian element data for the satellite.

Feedback or suggestion? Click here.




ElementValue
Catalog62995
NameSTARLINK-32819
Epoch Orbit4892
Epoch Day354.09971273
Epoch Year2025
RAAN232.7605
Inclination42.9992
Eccentricity0.0003
Argument of Perigee251.1227
Mean Anonmoly108.9299
Mean Motion15.27592117
Decay Rate0.00021289
L11 62995U 25031Q 25354.09971273 .00021289 00000+0 78056-3 0 9999
L22 62995 42.9992 232.7605 0003000 251.1227 108.9299 15.27592117 48927



Live tracking and technical data element details for STARLINK-32819 (NORAD 62995). STARLINK-32819 can be tracked NOW for your location showing map with azimuth and elevation plus other details from your city location.







IsCatalogInMostPopularTable: catalog: 62995, numindb: 2
Update: records affected: 1



GetName: 62995 STARLINK-32819

Hit Count: updated at: Sun, 08 Feb 2026 08:27:24 GMT